Total_Precipitation_Accumulation
0.13 0.12 0.11 0.09 0.06 0.03 0.02 0.01 0.01 0.01 0.01 0.00 0.01 0.02 0.03 0.04 0.06 0.05 0.05 0.06 0.05 0.05 0.06 0.07 0.06 0.04 0.03 0.02 0.02 0.05 0.15 0.28 0.37 0.38 0.35 0.28 0.24 0.24
0.13 0.13 0.13 0.12 0.09 0.06 0.03 0.02 0.01 0.01 0.00 0.00 0.01 0.01 0.01 0.02 0.02 0.02 0.02 0.02 0.03 0.05 0.06 0.05 0.06 0.06 0.05 0.03 0.02 0.03 0.09 0.17 0.28 0.37 0.40 0.39 0.35 0.32
0.16 0.14 0.13 0.12 0.11 0.08 0.06 0.03 0.01 0.01 0.01 0.00 0.00 0.01 0.01 0.01 0.01 0.01 0.01 0.02 0.03 0.04 0.04 0.03 0.03 0.03 0.04 0.02 0.02 0.04 0.08 0.12 0.19 0.32 0.46 0.56 0.56 0.49
0.20 0.18 0.16 0.14 0.11 0.08 0.06 0.04 0.03 0.02 0.02 0.01 0.01 0.01 0.01 0.01 0.01 0.00 0.00 0.01 0.01 0.01 0.02 0.02 0.02 0.03 0.04 0.04 0.02 0.03 0.04 0.08 0.15 0.25 0.37 0.49 0.61 0.68
0.22 0.20 0.18 0.16 0.12 0.08 0.04 0.03 0.04 0.03 0.03 0.03 0.02 0.02 0.02 0.01 0.00 0.00 0.00 0.00 0.01 0.01 0.02 0.03 0.05 0.06 0.06 0.06 0.04 0.04 0.03 0.05 0.08 0.14 0.23 0.32 0.40 0.50
0.27 0.23 0.20 0.18 0.14 0.11 0.07 0.05 0.04 0.03 0.03 0.04 0.04 0.04 0.04 0.02 0.02 0.02 0.01 0.00 0.01 0.01 0.01 0.01 0.03 0.06 0.07 0.07 0.06 0.05 0.05 0.06 0.07 0.09 0.15 0.18 0.22 0.26
0.32 0.31 0.28 0.26 0.22 0.16 0.11 0.07 0.05 0.04 0.03 0.03 0.03 0.03 0.03 0.04 0.04 0.04 0.04 0.02 0.01 0.01 0.01 0.01 0.02 0.02 0.04 0.08 0.11 0.11 0.10 0.08 0.09 0.11 0.13 0.17 0.19 0.18
0.27 0.27 0.25 0.23 0.22 0.22 0.17 0.10 0.07 0.05 0.04 0.04 0.03 0.03 0.03 0.04 0.06 0.07 0.08 0.08 0.05 0.03 0.03 0.02 0.02 0.02 0.02 0.05 0.09 0.13 0.16 0.16 0.14 0.15 0.18 0.18 0.20 0.21
0.14 0.15 0.13 0.12 0.11 0.11 0.10 0.07 0.05 0.05 0.05 0.06 0.08 0.07 0.04 0.03 0.05 0.07 0.11 0.12 0.10 0.07 0.06 0.05 0.03 0.02 0.01 0.02 0.06 0.08 0.12 0.17 0.21 0.22 0.20 0.22 0.27 0.29
0.06 0.06 0.06 0.06 0.05 0.06 0.04 0.03 0.02 0.03 0.04 0.05 0.09 0.13 0.12 0.09 0.07 0.09 0.11 0.13 0.12 0.09 0.08 0.08 0.06 0.04 0.02 0.01 0.02 0.03 0.05 0.09 0.15 0.21 0.26 0.26 0.26 0.32
0.02 0.02 0.02 0.02 0.03 0.02 0.03 0.03 0.03 0.04 0.05 0.05 0.08 0.12 0.14 0.13 0.11 0.11 0.13 0.14 0.14 0.13 0.10 0.10 0.08 0.06 0.03 0.01 0.00 0.01 0.01 0.02 0.06 0.13 0.20 0.28 0.33 0.36
0.01 0.01 0.01 0.02 0.02 0.01 0.02 0.03 0.03 0.03 0.02 0.01 0.02 0.03 0.04 0.06 0.07 0.11 0.14 0.15 0.13 0.13 0.09 0.08 0.08 0.07 0.06 0.02 0.01 0.01 0.01 0.01 0.01 0.04 0.10 0.18 0.29 0.40
0.01 0.01 0.01 0.02 0.02 0.02 0.01 0.01 0.02 0.01 0.01 0.00 0.00 0.01 0.01 0.02 0.03 0.05 0.06 0.08 0.08 0.08 0.06 0.06 0.06 0.05 0.05 0.03 0.01 0.01 0.01 0.01 0.01 0.02 0.03 0.08 0.18 0.32
0.01 0.01 0.01 0.02 0.02 0.02 0.01 0.01 0.01 0.00 0.00 0.00 0.00 0.00 0.00 0.00 0.01 0.01 0.01 0.02 0.02 0.03 0.03 0.02 0.03 0.04 0.04 0.03 0.02 0.01 0.01 0.02 0.02 0.02 0.02 0.03 0.06 0.15
0.03 0.05 0.03 0.01 0.01 0.01 0.00 0.00 0.00 0.00 0.00 0.00 0.00 0.00 0.00 0.00 0.00 0.00 0.00 0.00 0.00 0.00 0.00 0.00 0.01 0.02 0.03 0.03 0.02 0.01 0.01 0.01 0.01 0.02 0.02 0.02 0.03 0.06
0.03 0.06 0.05 0.01 0.00 0.00 0.00 0.00 0.00 0.00 0.00 0.00 0.00 0.00 0.00 0.00 0.00 0.00 0.00 0.00 0.00 0.00 0.00 0.00 0.00 0.01 0.02 0.02 0.03 0.02 0.02 0.02 0.01 0.01 0.01 0.01 0.02 0.04
0.03 0.03 0.03 0.02 0.01 0.00 0.00 0.00 0.00 0.00 0.00 0.00 0.00 0.00 0.00 0.00 0.00 0.00 0.00 0.01 0.01 0.00 0.00 0.00 0.00 0.00 0.01 0.02 0.03 0.02 0.02 0.02 0.01 0.01 0.01 0.01 0.01 0.02
0.02 0.01 0.02 0.02 0.01 0.00 0.00 0.00 0.00 0.00 0.00 0.00 0.00 0.00 0.00 0.00 0.00 0.00 0.00 0.01 0.01 0.01 0.00 0.00 0.00 0.01 0.01 0.01 0.01 0.02 0.02 0.02 0.01 0.01 0.02 0.03 0.02 0.01
0.00 0.00 0.00 0.01 0.01 0.00 0.00 0.00 0.00 0.00 0.00 0.00 0.00 0.00 0.00 0.00 0.00 0.00 0.00 0.01 0.01 0.01 0.00 0.00 0.01 0.02 0.03 0.01 0.01 0.01 0.03 0.04 0.03 0.03 0.04 0.05 0.03 0.02
0.00 0.00 0.00 0.00 0.00 0.00 0.00 0.00 0.00 0.00 0.00 0.00 0.00 0.00 0.00 0.01 0.01 0.00 0.00 0.01 0.01 0.01 0.01 0.00 0.01 0.01 0.04 0.05 0.03 0.01 0.02 0.03 0.05 0.06 0.08 0.10 0.09 0.08
0.00 0.00 0.00 0.00 0.00 0.00 0.00 0.00 0.00 0.00 0.00 0.00 0.00 0.00 0.00 0.01 0.01 0.01 0.01 0.01 0.01 0.02 0.01 0.00 0.00 0.01 0.02 0.05 0.08 0.03 0.02 0.04 0.06 0.08 0.09 0.14 0.19 0.18
0.00 0.00 0.00 0.00 0.00 0.00 0.00 0.00 0.00 0.00 0.00 0.00 0.00 0.00 0.00 0.01 0.01 0.01 0.01 0.01 0.01 0.01 0.01 0.01 0.00 0.01 0.03 0.09 0.10 0.06 0.05 0.07 0.10 0.13 0.15 0.15 0.20 0.23
0.00 0.00 0.00 0.00 0.00 0.00 0.00 0.00 0.00 0.00 0.00 0.00 0.00 0.00 0.00 0.01 0.01 0.01 0.01 0.02 0.02 0.02 0.01 0.02 0.02 0.03 0.06 0.09 0.12 0.12 0.10 0.10 0.10 0.12 0.14 0.15 0.14 0.16